{"data":{"norad_id":58650,"epoch":"2026-09-22T17:14:37.908384Z","epoch_age_seconds":56828,"freshness":"FRESH","line1":"1 58650U 23206A   26265.71849431  .00002181  00000+0  18923-3 0  9992","line2":"2 58650  97.7286 228.8237 0005340 180.0861 180.0362 14.98088025149912","mean_motion":14.98088025,"eccentricity":0.000534,"inclination_deg":97.7286,"raan_deg":228.8237,"arg_perigee_deg":180.0861,"mean_anomaly_deg":180.0362,"bstar":0.00018923,"rev_number":14991,"period_min":96.122522573398,"perigee_km":569.09247674744,"apogee_km":576.51608203383,"semimajor_km":6950.9412793906,"source":"CELESTRAK","updated_at":"2026-09-23T09:00:18.882716Z"}}